London, United Kingdom

7:07 AM GMT on February 07, 2016 (GMT +0000)
London

Weather History for 03772 - June, 2014

Change the Weather History Date:

Wednesday, June 4, 2014

  Actual Average Record
Temperature  
Mean Temperature 52 °F -  
Max Temperature 58 °F 68 °F - ()
Min Temperature 46 °F 52 °F - ()
Degree Days  
Heating Degree Days 13    
Growing Degree Days 2 (Base 50)    
Moisture  
Dew Point 48 °F    
Average Humidity 78    
Maximum Humidity 94    
Minimum Humidity 47    
Precipitation  
Precipitation 0.08 in - - ()
Sea Level Pressure  
Sea Level Pressure 29.67 in    
Wind  
Wind Speed 8 mph ()    
Max Wind Speed 29 mph    
Max Gust Speed 40 mph    
Visibility 7.3 miles    
Events Rain , Thunderstorm    
T = Trace of Precipitation, MM = Missing Value Source: Averaged Metar Reports

Daily Weather History Graph

Daily Weather History Graph

Search for Another Location

Airport or City:

Trip Planner

Search our weather history database for the weather conditions in past years. The results will help you decide how hot, cold, wet, or windy it might be!

Date:

Astronomy

Jun. 04, 2014 Rise Set
Actual Time 4:48 AM BST 9:12 PM BST
Civil Twilight 4:02 AM BST 9:58 PM BST
Nautical Twilight 2:53 AM BST 11:07 PM BST
Astronomical Twilight 1:32 AM BST 12:27 AM BST
Moon 11:25 AM BST (6/4) 12:34 AM BST (6/4)
Length of Visible Light 17h 56m
Length of Day
16h 23m
Waxing Crescent, 37% of the Moon is Illuminated
Jun 4
Waxing Crescent
Jun 5
First Quarter
Jun 13
Full
Jun 19
Last Quarter
Jun 27
New

Hourly Weather History & Observations

Time (BST) Temp. Windchill Dew Point Humidity Pressure Visibility Wind Dir Wind Speed Gust Speed Precip Events Conditions
12:00 AM 55 °F - 49 °F 74% 29.79 in 25 mi SW 3.5 mph - -   Scattered Clouds
12:20 AM 55.4 °F - 50.0 °F 82% 29.77 in - SSW 5.8 mph - N/A   Clear
12:50 AM 55.4 °F - 50.0 °F 82% 29.77 in - South 5.8 mph - N/A   Clear
1:00 AM 55 °F - 50 °F 76% 29.78 in 16 mi South 6.9 mph - -   Mostly Cloudy
1:20 AM 55.4 °F - 50.0 °F 82% 29.77 in 6.2 mi SSW 5.8 mph - N/A   Unknown
1:50 AM 53.6 °F - 50.0 °F 88% 29.74 in 6.2 mi SSW 4.6 mph - N/A   Unknown
2:00 AM 54 °F - 49 °F 78% 29.75 in 25 mi SSW 5.8 mph - -   Scattered Clouds
2:20 AM 53.6 °F - 50.0 °F 88% 29.74 in 6.2 mi South 6.9 mph - N/A   Unknown
2:50 AM 53.6 °F - 50.0 °F 88% 29.74 in 6.2 mi South 5.8 mph - N/A   Partly Cloudy
3:00 AM 54 °F - 50 °F 82% 29.73 in 14 mi South 6.9 mph - -   Scattered Clouds
3:20 AM 53.6 °F - 50.0 °F 88% 29.71 in 6.2 mi South 5.8 mph - N/A   Partly Cloudy
3:50 AM 53.6 °F - 51.8 °F 94% 29.71 in 6.2 mi South 4.6 mph - N/A   Partly Cloudy
4:00 AM 54 °F - 51 °F 85% 29.71 in 10 mi South 5.8 mph - -   Mostly Cloudy
4:20 AM 53.6 °F - 51.8 °F 94% 29.71 in 4.3 mi South 6.9 mph - N/A Rain Light Rain
4:50 AM 53.6 °F - 51.8 °F 94% 29.68 in 4.3 mi SSE 6.9 mph - N/A Rain Rain
5:00 AM 53 °F - 51 °F 91% 29.70 in 5 mi SSE 6.9 mph - - Rain Light Rain Showers
5:20 AM 53.6 °F - 51.8 °F 94% 29.68 in 5.0 mi SSE 5.8 mph - N/A Rain Light Rain
5:50 AM 53.6 °F - 51.8 °F 94% 29.68 in 5.6 mi South 6.9 mph - N/A Rain Light Rain
6:00 AM 53 °F - 51 °F 92% 29.68 in 5 mi South 8.1 mph - - Rain Light Rain
6:20 AM 53.6 °F - 51.8 °F 94% 29.68 in 6.2 mi SW 8.1 mph - N/A Rain Light Rain
6:50 AM 53.6 °F - 50.0 °F 88% 29.65 in 6.2 mi WSW 5.8 mph - N/A Rain Light Rain
7:00 AM 53 °F - 50 °F 86% 29.67 in 11 mi WSW 6.9 mph - - Rain Light Rain
7:20 AM 53.6 °F - 50.0 °F 88% 29.65 in 6.2 mi West 5.8 mph - N/A Rain Light Rain
7:50 AM 53.6 °F - 50.0 °F 88% 29.65 in 6.2 mi West 4.6 mph - N/A Rain Light Rain
8:00 AM 53 °F - 50 °F 84% 29.66 in 9 mi West 3.5 mph - - Rain Light Rain
8:20 AM 53.6 °F - 50.0 °F 88% 29.65 in 6.2 mi West 4.6 mph - N/A Rain Light Rain
8:50 AM 55.4 °F - 50.0 °F 82% 29.65 in 6.2 mi Variable 3.5 mph - N/A   Partly Cloudy
9:00 AM 54 °F - 49 °F 76% 29.65 in 19 mi WSW 3.5 mph - - Rain Rain
9:20 AM 57.2 °F - 50.0 °F 77% 29.65 in 6.2 mi Variable 4.6 mph - N/A   Scattered Clouds
9:50 AM 57.2 °F - 48.2 °F 72% 29.62 in 6.2 mi SSW 5.8 mph - N/A   Scattered Clouds
10:00 AM 56 °F - 47 °F 63% 29.64 in 19 mi South 3.5 mph - - Rain Rain
10:20 AM 55.4 °F - 50.0 °F 82% 29.62 in 6.2 mi SSW 5.8 mph - N/A Rain Light Drizzle
10:50 AM 55.4 °F - 50.0 °F 82% 29.62 in 6.2 mi WSW 8.1 mph - N/A   Mostly Cloudy
11:00 AM 54 °F - 49 °F 79% 29.64 in 22 mi WSW 6.9 mph - - Rain Rain
11:20 AM 57.2 °F - 50.0 °F 77% 29.62 in 6.2 mi WSW 6.9 mph - N/A   Mostly Cloudy
11:50 AM 53.6 °F - 48.2 °F 82% 29.62 in 6.2 mi WSW 9.2 mph - N/A   Scattered Clouds
12:00 PM 54 °F - 47 °F 71% 29.63 in 25 mi WSW 9.2 mph - -   Scattered Clouds
12:20 PM 55.4 °F - 48.2 °F 77% 29.62 in 6.2 mi WSW 8.1 mph - N/A   Mostly Cloudy
12:50 PM 57.2 °F - 48.2 °F 72% 29.62 in 6.2 mi WSW 11.5 mph - N/A   Mostly Cloudy
1:00 PM 57 °F - 49 °F 68% 29.63 in 22 mi West 11.5 mph - - Rain Rain
1:20 PM 57.2 °F - 48.2 °F 72% 29.62 in 6.2 mi WSW 9.2 mph - N/A   Mostly Cloudy
1:50 PM 57.2 °F - 50.0 °F 77% 29.62 in 6.2 mi SW 10.4 mph - N/A   Scattered Clouds
2:00 PM 57 °F - 48 °F 63% 29.62 in 25 mi WSW 9.2 mph - -   Partly Cloudy
2:20 PM 53.6 °F - 50.0 °F 88% 29.62 in 6.2 mi West 15.0 mph - N/A Rain Light Rain Showers
2:50 PM 55.4 °F - 50.0 °F 82% 29.62 in 6.2 mi WSW 19.6 mph - N/A Rain Light Rain Showers
3:00 PM 54 °F - 49 °F 79% 29.63 in 19 mi WSW 20.7 mph - - Rain Light Rain Showers
3:20 PM 55.4 °F - 50.0 °F 82% 29.65 in 6.2 mi West 17.3 mph - N/A   Scattered Clouds
3:50 PM 55.4 °F - 48.2 °F 77% 29.65 in 6.2 mi West 18.4 mph - N/A   Scattered Clouds
4:00 PM 56 °F - 48 °F 66% 29.65 in 31 mi West 16.1 mph - - Rain Rain
4:20 PM 57.2 °F - 46.4 °F 67% 29.65 in 6.2 mi West 19.6 mph - N/A   Scattered Clouds
4:50 PM 57.2 °F - 46.4 °F 67% 29.65 in 6.2 mi West 18.4 mph - N/A   Mostly Cloudy
5:00 PM 58 °F - 45 °F 53% 29.65 in 31 mi West 15.0 mph - -   Scattered Clouds
5:20 PM 55.4 °F - 44.6 °F 67% 29.65 in 6.2 mi West 17.3 mph - N/A   Mostly Cloudy
5:50 PM 57.2 °F - 44.6 °F 63% 29.65 in 6.2 mi West 18.4 mph - N/A   Partly Cloudy
6:00 PM 57 °F - 44 °F 50% 29.66 in 28 mi West 16.1 mph - -   Partly Cloudy
6:20 PM 57.2 °F - 44.6 °F 63% 29.65 in 6.2 mi West 16.1 mph - N/A   Scattered Clouds
6:50 PM 55.4 °F - 42.8 °F 63% 29.65 in 6.2 mi West 17.3 mph - N/A   Mostly Cloudy
7:00 PM 56 °F - 41 °F 47% 29.67 in 28 mi West 16.1 mph - -   Scattered Clouds
7:20 PM 55.4 °F - 42.8 °F 63% 29.65 in 6.2 mi West 12.7 mph - N/A Thunderstorm Scattered Clouds
7:50 PM 53.6 °F - 39.2 °F 58% 29.68 in 6.2 mi SW 28.8 mph 40.3 mph N/A Thunderstorm Mostly Cloudy
8:00 PM 51 °F - 37 °F 47% 29.69 in 22 mi WSW 18.4 mph - -   Partly Cloudy
8:20 PM 48.2 °F - 42.8 °F 82% 29.71 in 6.2 mi SW 18.4 mph - N/A Rain Light Rain Showers
8:50 PM 48.2 °F - 42.8 °F 82% 29.68 in 6.2 mi SW 9.2 mph - N/A   Scattered Clouds
9:00 PM 49 °F - 42 °F 69% 29.70 in 25 mi SSW 9.2 mph - - Rain Rain
9:20 PM 48.2 °F - 42.8 °F 82% 29.68 in 6.2 mi WSW 11.5 mph - N/A   Partly Cloudy
9:50 PM 48.2 °F - 44.6 °F 87% 29.68 in 6.2 mi WSW 10.4 mph - N/A   Partly Cloudy
10:00 PM 48 °F - 44 °F 80% 29.70 in 22 mi WSW 10.4 mph - -   Scattered Clouds
10:20 PM 48.2 °F - 44.6 °F 87% 29.71 in - WSW 11.5 mph - N/A   Clear
10:50 PM 48.2 °F - 44.6 °F 87% 29.71 in - WSW 12.7 mph - N/A   Clear
11:00 PM 47 °F - 43 °F 82% 29.71 in 28 mi SW 11.5 mph - -  
11:20 PM 46.4 °F 41.5 °F 44.6 °F 93% 29.71 in - SW 10.4 mph - N/A   Clear
11:50 PM 46.4 °F 42.4 °F 44.6 °F 93% 29.71 in 6.2 mi SW 8.1 mph - N/A   Light Drizzle